User: anonymous   Login
Location: Mentone
(34.5413°N, 85.5351°W)
Time: 05:27:25
(UTC-05:00)
Language:

Okean O Rocket - Orbit

View from above orbital plane
View from above orbital plane
View from above satellite
View from above satellite

Ground track
Ground track

The orbit data is extracted from the following two-line orbital elements,

1 25861U 99039B   16270.00350963  .00000091  00000-0  19884-4 0  9998
2 25861  98.0662 234.1530 0014962 208.2367 193.6010 14.78349902926748
Epoch (UTC): 26 September 2016 00:05:03
Eccentricity: 0.0014962
inclination: 98.0662°
perigee height: 624 km
apogee height: 645 km
right ascension of ascending node: 234.1530°
argument of perigee: 208.2367°
revolutions per day: 14.78349902
mean anomaly at epoch: 193.6010°
orbit number at epoch: 92674

The dashed part of the orbit path shows where the satellite is in the earth's shadow,  

DLR